sat.trackr.live / text

‹ back to catalog

HYPERFIELD-1B

NORAD 64552 · 2025-135AA

PAYLOAD ACTIVE UNKNOWN

§ Identity

Operator
Country
FIN
Launch date
2025-06-23
Launch site
AFWTR
Launch vehicle
Mass (kg)
RCS (m²)

External: N2YO · Heavens-Above · Gunter

§ Orbital elements

Epoch: 2026-05-25T04:29:21.138144Z

Period
94.60 min
Inclination
97.4643°
Eccentricity
0.0001995
Mean motion
15.22119536 rev/d
Perigee alt
498.1 km
Apogee alt
500.8 km
Semi-major
6,877.6 km
B*
1.8569e-4
RAAN
260.6725°
Arg perigee
69.7823°
Mean anomaly
290.3627°
Rev number
5,138

§ Raw data

HYPERFIELD-1B1 64552U 25135AA  26145.18705021  .00004184  00000+0  18569-3 0  99982 64552  97.4643 260.6725 0001995  69.7823 290.3627 15.22119536 51385

JSON: /api/v1/satellites/64552 · /tle

For live sub-satellite position, see the globe view (requires WebGL).

§ Visibility from observer

Set your observer location to see the next 7 days of passes ≥ 10°. The values pass through the URL so the page stays shareable.

No JS? Fill the form by hand. The geolocation button needs JavaScript.

§ Radio — SatNOGS DB

ModeDescriptionDownlinkUplink
FM Mode S - Unknown modulation 2.248 GHz
FM Mode X - Transmitter 8.130 GHz
BPSK S-band telemetry 2.245 GHz

3 transmitters · refreshed weekly from db.satnogs.org